Other Public Products
Issued by NWS Grand Forks, ND

Home | Current Version | Previous Version | Text Only | Print | Product List | Glossary On
Versions: 1 2 3 4 5 6 7 8 9 10 11 12 13 14 15 16 17 18 19 20 21 22 23 24 25 26 27 28 29 30 31 32 33 34 35 36 37 38 39 40 41 42 43 44 45 46 47 48 49 50
000
FPUS83 KFGF 311631
OPUFGF
PRAIRIE TO PINES WEATHER ROUNDUP
NATIONAL WEATHER SERVICE EASTERN NORTH DAKOTA/GRAND FORKS ND
1000 AM CST SAT JAN 31 2015

 **SATELLITE DATA USED TO AUGMENT SKY COVER AT AUTOMATED STATIONS**
 *****  WEATHER ACROSS EASTERN NORTH DAKOTA  *****

CITY           SKY/WX    TMP DP  RH WIND       PRES   REMARKS
GRAND FORKS    CLOUDY     4  -6  63 N17G25    30.45R WCI -16
GRAND FORKS AF CLOUDY     2  -7  66 N17G26    30.45R WCI -18
GRAND CITY NWS   N/A      1 N/A N/A N22         N/A  WCI -21
BUXTON           N/A      5  -2  73 N21         N/A  WCI -16
DEVILS LAKE    CLOUDY     3  -6  66 NE18      30.38R WCI -17
FARGO          SUNNY     10  -1  61 N21       30.36R WCI  -9
WAHPETON ARPT  MOSUNNY   14   5  67 N21G26    30.32R WCI  -4
$$

 *****  WEATHER ACROSS CENTRAL AND WESTERN NORTH DAKOTA  *****

CITY           SKY/WX    TMP DP  RH WIND       PRES   REMARKS
JAMESTOWN      MOSUNNY   10   3  73 NE17      30.31R WCI  -8
BISMARCK       LGT SNOW  13   9  84 NE16      30.28R FOG     WCI  -3
MINOT          LGT SNOW   6   0  76 NE14      30.37R WCI -11
MINOT AFB      LGT SNOW   5   1  85 NE15      30.38R FOG     WCI -13
GARRISON         N/A      8   0  69 E15       30.30R WCI  -9
WILLISTON      FLURRIES  12   5  73 E17G24    30.28R WCI  -5
DICKINSON      FOG       20  17  88 E16G24    30.11S VSB 3/4 WCI   6
HETTINGER      FOG       20  18  92 E16       30.10F VSB 1/2 WCI   6
$$

 *****  OTHER OBSERVATIONS NORTHEAST NORTH DAKOTA  *****

CITY           SKY/WX    TMP DP  RH WIND       PRES   REMARKS
WALHALLA         N/A     -4 -11  71 N17       30.53R WCI -26
LANGDON        NOT AVBL
CAVALIER       PTSUNNY   -4  -9  77 N17G24    30.52R WCI -26
GRAFTON        NOT AVBL
CANDO          CLOUDY     0  -8  71 NE16G22   30.42R WCI -21
FORT TOTTEN      N/A      4  -4  68 NE7       29.95  WCI  -8
ROLLA          LGT SNOW  -2  -8  78 NE17      30.40R WCI -24
RUGBY          FAIR       1  -2  85 NE20      30.40R WCI -20
 ***** THE ABOVE OBSERVATIONS ARE NON NWS ARE NOT QUALITY
        CONTROLLED AND MAY MIS-REPORT RAIN FOR SNOW...
$$

 *****  OTHER OBSERVATIONS SOUTHEAST NORTH DAKOTA *****

CITY           SKY/WX    TMP DP  RH WIND       PRES   REMARKS
COOPERSTOWN    NOT AVBL
VALLEY CITY    NOT AVBL
OAKES            N/A     10   0  61 NE22G32   30.29S WCI  -9
GWINNER        NOT AVBL
SHEYENNE NWR     N/A     11  -4  52 N18       29.95S WCI  -7
BUFFALO        NOT AVBL
WYNDMERE         N/A     10   3  72 N14         N/A  WCI  -5
 ***** THE ABOVE OBSERVATIONS ARE NON NWS ARE NOT QUALITY
       CONTROLLED AND MAY MIS-REPORT RAIN FOR SNOW...
$$

  *****  WEATHER ACROSS NORTHERN MINNESOTA  *****

CITY           SKY/WX    TMP DP  RH WIND       PRES   REMARKS
FLAG ISLAND    MOSUNNY   -6 -11  77 N13       30.41R WCI -25
WARROAD        MOSUNNY   -2  -9  71 NW7       30.42R WCI -16
ROSEAU         MOSUNNY   -2  -9  71 N13       30.43R WCI -21
HALLOCK        MOSUNNY   -2  -9  71 N17       30.48R WCI -24
THF RVR FALLS  SUNNY      1  -6  71 N20       30.39S WCI -20
HALSTAD          N/A      9  -2  61 N20         N/A  WCI -11
FOSSTON        SUNNY      7   0  72 N16       30.35R WCI -11
BAUDETTE       PTSUNNY   -2  -8  76 NW17      30.37R WCI -23
WASKISH        MOSUNNY    3  -2  78 N6        30.34S WCI  -8
CROOKSTON      SUNNY      7  -4  61 N15G21    30.44R WCI -11
$$
  *****  WEATHER ACROSS CENTRAL AND WEST MINNESOTA  *****

CITY           SKY/WX    TMP DP  RH WIND       PRES   REMARKS
BEMIDJI        SUNNY      6  -5  61 N13       30.30R WCI -10
PARK RAPIDS    CLOUDY    13  -6  42 N13       30.25R WCI  -2
WADENA         FLURRIES  18  12  79 N12       30.25R WCI   5
DETROIT LAKES  MOSUNNY   12   7  79 N6        30.29R WCI   3
MOORHEAD       SUNNY     10   0  61 N20G26    30.36S WCI  -8
FERGUS FALLS   FLURRIES  16   9  73 N12       30.31R WCI   3
ELBOW LAKE     CLOUDY    19  15  84 N15       30.24R WCI   4
MORRIS MN      CLOUDY    21  19  93 N15       30.23R WCI   8
STAPLES        CLOUDY    19  10  68 N7        30.24R WCI  10
WHEATON        CLOUDY    14  10  85 N17       30.30R WCI  -3
$$
  *****  WEATHER ELSEWHERE ACROSS MINNESOTA  *****

CITY           SKY/WX    TMP DP  RH WIND       PRES   REMARKS
DULUTH         FLURRIES  19  10  68 N12       30.19R WCI   7
INTRNTL FALLS  CLOUDY     6  -1  73 N10       30.32R HAZE    WCI  -9
ELY            PTSUNNY   10   1  67 NW8       30.23R WCI  -1
CLOQUET        CLOUDY    19  10  68 NW13      30.21R WCI   7
BRAINERD       PTSUNNY   21  12  68 N12       30.22R WCI   9
HIBBING        MOSUNNY   14   3  61 N13       30.25R WCI   0
ALEXANDRIA     CLOUDY    22  17  81 NE13      30.21R WCI  10
SAINT CLOUD    CLOUDY    26  19  74 N9        30.21R WCI  17
MINNEAPOLIS    CLOUDY    28  22  78 NE9       30.19R WCI  19
$$

  *****  WEATHER ACROSS SOUTH DAKOTA  *****

CITY           SKY/WX    TMP DP  RH WIND       PRES   REMARKS
SIOUX FALLS    CLOUDY    26  24  92 NE17      30.14S FOG     WCI  13
BROOKINGS      NOT AVBL
WATERTOWN      CLOUDY    17  14  88 NE18      30.17R FOG     WCI   1
HURON          CLOUDY    24  20  84 NE17      30.18S WCI  11
SISSETON         N/A     16  12  84 NE18      30.26R WCI   0
ABERDEEN       CLOUDY    18  12  77 NE20      30.25R WCI   2
MITCHELL       CLOUDY    27  25  92 NE17      30.15S FOG     WCI  14
PIERRE         CLOUDY    23  22  96 E15       30.14S FOG     WCI  10
MOBRIDGE       CLOUDY    23  19  85 NE15      30.16R WCI  10
RAPID CITY     CLOUDY    27  25  92 E9        30.02R WCI  18
$$

  *****  SOME WEATHER IN NEARBY STATES *****

CITY           SKY/WX    TMP DP  RH WIND       PRES   REMARKS
GLASGOW MT     SNOW      19  15  84 E18       30.14R VSB 1/2 WCI   4
GREAT FALLS MT HVY SNOW  19  18  93 N22       30.15R VSB 1/4 WCI   3
CHEYENNE WY    CLOUDY    30  25  81 N10       29.89S WCI  21
SCOTTSBLUFF NE LGT SNOW  33  28  81 CALM      29.95R
OMAHA NE       LGT RAIN  36  34  92 S10       30.15F
DES MOINES IA  CLOUDY    39  33  79 SW7       30.19S
DAVENPORT IA   CLOUDY    34  26  72 SW13      30.22S WCI  25
CHICAGO IL     PTSUNNY   31  20  63 SW12      30.21F WCI  22
EAU CLAIRE WI  CLOUDY    25  18  74 N3        30.18R
LA CROSSE WI   CLOUDY    27  18  69 CALM      30.19R
$$

  *****  SOME NATIONAL WEATHER *****

CITY           SKY/WX    TMP DP  RH WIND       PRES   REMARKS
LA GUARDIA NY  SUNNY     19   2  47 NW24G35   30.14S WCI   2
RALEIGH NC     PTSUNNY   37   5  26 W10       30.38R
ATLANTA GA     PTSUNNY   43  17  35 S6        30.38S
NEW ORLEANS LA MOSUNNY   54  41  61 NE9       30.32R
OKLAHOMA CITY  LGT RAIN  42  35  76 S12       30.16S
ALBUQUERQUE NM LGT RAIN  33  32  96 CALM      29.94S FOG
SALT LAKE CITY PTSUNNY   38  31  76 NW6       30.02R
LOS ANGELES CA PTSUNNY   57  55  93 CALM      29.89R FOG
BOISE ID       CLEAR     27  24  89 CALM      30.15R
SEATTLE WA     FOG       39  38  96 N6        30.24S VSB 1/4
$$

*** WEATHER ACROSS MANITOBA...SASKATCHEWAN AND ONTARIO ***
                ***ONTARIO***

CITY           SKY/WX    TMP DP  RH WIND       PRES   REMARKS
GERALDTON      SNOWSHWR  -2  -9  71 N15G22    30.17R DRFTSNOWWCI -22
THUNDER BAY    PTSUNNY   12   0  57 N15G23    30.24R WCI  -4
SIOUX LOOKOUT  MOSUNNY   -9 -20  59 N7G17     30.33R WCI -24
TORONTO        PTSUNNY   18   9  68 SW6       30.27F WCI   9
BIG TROUT LK   CLOUDY   -26 -33  68 NW15      30.34R HAZE    WCI -52
PICKLE LAKE    CRYSTALS -18 -27  63 NW7       30.31R WCI -35
DRYDEN         LGT SNOW  -6 -17  59 N13       30.35R WCI -25
KENORA         MOSUNNY   -8 -15  71 N15       30.37R WCI -29
$$
                *** MANITOBA***

CITY           SKY/WX    TMP DP  RH WIND       PRES   REMARKS
BRANDON        PTSUNNY   -9 -17  70 NE15      30.52R WCI -31
DAUPHIN        SUNNY    -15 -22  70 N13       30.62R WCI -37
ISLAND LAKE    SUNNY    -24 -33  62 NW9       30.47R WCI -45
PILOT MOUND      N/A     -9 -15  77 N13G20      N/A  WCI -30
THE PAS        PTCLDY   -24 -31  69 NW8       30.65R WCI -43
THOMPSON       CRYSTALS -26 -35  62 NW9       30.53R WCI -47
WINNIPEG       CRYSTALS -11 -18  70 N17G23    30.56R WCI -35
LYNN LAKE      CLEAR    -27 -35  68 NW10      30.52S WCI -50
CHURCHILL      BLWGSNOW -22 -29  69 NW22G32   30.34R VSB 3/4 WCI -52
GILLAM         CLEAR    -27 -35  68 W13       30.43R WCI -53
$$
                ***SASKATCHEWAN***

CITY           SKY/WX    TMP DP  RH WIND       PRES   REMARKS
ESTEVAN        LGT SNOW   5   0  78 E17       30.36R DRFTSNOWWCI -14
KINDERSLEY     CLOUDY    -4  -9  77 NE16      30.47R WCI -25
LLOYDMINSTER   MOCLDY    -9 -18  64 NE7       30.53S WCI -24
PRINCE ALBERT  MOCLDY   -20 -26  76 NE2       30.65R
REGINA         PTSUNNY    1  -6  71 NE17      30.42R WCI -19



USA.gov is the U.S. government's official web portal to all federal, state and local government web resources and services.